Salem, IL

7:51 PM CDT on July 25, 2017 (GMT -0500)
Salem-Leckrone

Weather History for KSLO - October, 2013

Change the Weather History Date:

Tuesday, October 15, 2013

  Actual Average Record
Temperature  
Mean Temperature 64 °F -  
Max Temperature 67 °F 71 °F 90 °F (1963)
Min Temperature 60 °F 47 °F 30 °F (1961)
Degree Days  
Heating Degree Days 2    
Growing Degree Days 14 (Base 50)    
Moisture  
Dew Point 61 °F    
Average Humidity 90    
Maximum Humidity 100    
Minimum Humidity 75    
Precipitation  
Precipitation 0.04 in - - ()
Sea Level Pressure  
Sea Level Pressure 29.98 in    
Wind  
Wind Speed 7 mph (South)    
Max Wind Speed 14 mph    
Max Gust Speed 21 mph    
Visibility 7 miles    
Events Rain    
Averages and records for this station are not official NWS values.
T = Trace of Precipitation, MM = Missing Value Source: NWS Daily Summary

Daily Weather History Graph

Daily Weather History Graph

Search for Another Location

Airport or City:

Trip Planner

Search our weather history database for the weather conditions in past years. The results will help you decide how hot, cold, wet, or windy it might be!

Date:

Astronomy

Oct. 15, 2013 Rise Set
Actual Time 7:05 AM CDT 6:17 PM CDT
Civil Twilight 6:38 AM CDT 6:43 PM CDT
Nautical Twilight 6:07 AM CDT 7:14 PM CDT
Astronomical Twilight 5:36 AM CDT 7:45 PM CDT
Moon 4:20 PM CDT (10/15) 3:29 AM CDT (10/15)
Length of Visible Light 12h 05m
Length of Day
11h 11m
Waxing Gibbous, 88% of the Moon is Illuminated
Oct 15
Waxing Gibbous
Oct 18
Full
Oct 26
Last Quarter
Nov 3
New
Nov 9
First Quarter

Hourly Weather History & Observations

Time (CDT) Temp. Dew Point Humidity Pressure Visibility Wind Dir Wind Speed Gust Speed Precip Events Conditions
12:15 AM 60.3 °F 52.2 °F 75% 30.10 in 10.0 mi ESE 3.5 mph - N/A   Clear
12:35 AM 60.4 °F 52.3 °F 75% 30.08 in 10.0 mi East 4.6 mph - N/A   Clear
12:55 AM 60.3 °F 52.3 °F 75% 30.08 in 10.0 mi ESE 5.8 mph - N/A   Clear
1:15 AM 60.4 °F 52.7 °F 76% 30.08 in 10.0 mi SE 5.8 mph - N/A   Clear
1:35 AM 60.4 °F 52.7 °F 76% 30.08 in 10.0 mi ESE 3.5 mph - N/A   Clear
1:55 AM 60.4 °F 52.9 °F 76% 30.07 in 10.0 mi ESE 4.6 mph - N/A   Clear
2:15 AM 60.4 °F 53.2 °F 77% 30.06 in 10.0 mi ESE 4.6 mph - N/A   Clear
2:35 AM 60.8 °F 53.6 °F 77% 30.05 in 10.0 mi SE 6.9 mph - N/A   Mostly Cloudy
2:55 AM 60.8 °F 54.0 °F 78% 30.03 in 10.0 mi ESE 4.6 mph - N/A   Scattered Clouds
3:15 AM 61.0 °F 54.5 °F 79% 30.03 in 10.0 mi ESE 3.5 mph - N/A   Scattered Clouds
3:35 AM 61.0 °F 54.9 °F 80% 30.03 in 10.0 mi SE 3.5 mph - N/A   Scattered Clouds
3:55 AM 61.2 °F 55.4 °F 81% 30.02 in 10.0 mi SE 4.6 mph - N/A   Scattered Clouds
4:15 AM 61.3 °F 55.9 °F 82% 30.03 in 10.0 mi SSE 4.6 mph - N/A   Scattered Clouds
4:35 AM 61.2 °F 56.3 °F 84% 30.03 in 10.0 mi SE 3.5 mph - N/A   Scattered Clouds
4:55 AM 61.3 °F 56.5 °F 84% 30.02 in 10.0 mi SE 4.6 mph - N/A   Scattered Clouds
5:15 AM 61.3 °F 56.8 °F 85% 30.01 in 10.0 mi SE 5.8 mph - N/A   Scattered Clouds
5:35 AM 61.7 °F 57.4 °F 86% 30.01 in 7.0 mi SE 6.9 mph - N/A   Mostly Cloudy
5:55 AM 61.7 °F 57.6 °F 86% 30.01 in 7.0 mi SE 5.8 mph - N/A   Mostly Cloudy
6:15 AM 61.9 °F 58.1 °F 87% 30.00 in 7.0 mi SE 6.9 mph - N/A   Mostly Cloudy
6:35 AM 62.2 °F 58.3 °F 87% 29.99 in 7.0 mi SE 6.9 mph - N/A   Overcast
6:55 AM 62.4 °F 58.5 °F 87% 29.99 in 7.0 mi SSE 6.9 mph - N/A   Overcast
7:15 AM 62.4 °F 58.5 °F 87% 30.00 in 7.0 mi South 5.8 mph - N/A   Overcast
7:35 AM 61.9 °F 59.0 °F 90% 29.99 in 7.0 mi SE 6.9 mph - N/A Rain Light Rain
7:55 AM 61.9 °F 59.2 °F 91% 29.99 in 5.0 mi SE 5.8 mph - N/A   Overcast
8:15 AM 62.6 °F 59.9 °F 91% 30.00 in 5.0 mi SE 8.1 mph - N/A   Overcast
8:35 AM 63.0 °F 60.1 °F 90% 29.99 in 5.0 mi SE 5.8 mph - N/A   Overcast
8:55 AM 63.1 °F 60.3 °F 90% 29.99 in 5.0 mi SE 5.8 mph - N/A   Overcast
9:15 AM 63.9 °F 60.8 °F 90% 29.98 in 5.0 mi SSE 5.8 mph - N/A   Overcast
9:35 AM 64.4 °F 61.2 °F 89% 29.99 in 5.0 mi SSE 8.1 mph - N/A   Overcast
9:55 AM 65.3 °F 61.9 °F 89% 29.98 in 5.0 mi South 8.1 mph - N/A Rain Light Rain
10:15 AM 65.3 °F 62.6 °F 91% 29.98 in 5.0 mi South 8.1 mph - N/A Rain Rain
10:35 AM 64.9 °F 63.1 °F 94% 29.98 in 4.0 mi South 6.9 mph - N/A Rain Rain
10:55 AM 65.3 °F 63.7 °F 94% 29.99 in 4.0 mi South 8.1 mph - N/A Rain Rain
11:15 AM 65.3 °F 64.0 °F 96% 29.99 in 3.0 mi SSW 9.2 mph - N/A Rain Rain
11:35 AM 65.5 °F 65.3 °F 99% 30.00 in 3.0 mi SSW 8.1 mph - 0.01 in Rain Rain
11:55 AM 65.5 °F 65.3 °F 99% 29.97 in 3.0 mi South 9.2 mph - 0.02 in Rain Rain
12:15 PM 65.8 °F 65.5 °F 99% 29.96 in 3.0 mi South 11.5 mph 17.3 mph 0.01 in Rain Rain
12:35 PM 66.4 °F 65.7 °F 98% 29.96 in 4.0 mi South 9.2 mph 17.3 mph 0.02 in Rain Light Rain
12:55 PM 67.1 °F 65.7 °F 95% 29.94 in 5.0 mi South 11.5 mph 18.4 mph 0.02 in   Overcast
1:15 PM 67.1 °F 65.3 °F 94% 29.94 in 7.0 mi South 10.4 mph 19.6 mph N/A   Overcast
1:35 PM 67.3 °F 65.3 °F 93% 29.93 in 7.0 mi South 13.8 mph 18.4 mph N/A   Overcast
1:55 PM 67.3 °F 64.9 °F 92% 29.93 in 10.0 mi SSW 9.2 mph - N/A   Overcast
2:15 PM 67.5 °F 64.9 °F 92% 29.92 in 7.0 mi SSW 9.2 mph 19.6 mph N/A Rain Light Rain
2:35 PM 67.1 °F 64.8 °F 92% 29.92 in 4.0 mi SSW 11.5 mph - N/A   Drizzle
2:55 PM 67.1 °F 64.4 °F 91% 29.93 in 10.0 mi SSW 10.4 mph 18.4 mph N/A   Overcast
3:15 PM 66.7 °F 64.6 °F 93% 29.93 in 4.0 mi SSW 13.8 mph 19.6 mph N/A   Drizzle
3:35 PM 66.2 °F 63.7 °F 92% 29.92 in 7.0 mi SSW 11.5 mph 17.3 mph N/A   Overcast
3:55 PM 66.2 °F 64.0 °F 93% 29.93 in 7.0 mi SSW 12.7 mph 18.4 mph N/A Rain Light Rain
4:15 PM 66.2 °F 64.4 °F 94% 29.92 in 10.0 mi SSW 10.4 mph - N/A   Overcast
4:35 PM 66.4 °F 64.6 °F 94% 29.93 in 10.0 mi SSW 8.1 mph - N/A   Overcast
4:55 PM 66.4 °F 65.1 °F 96% 29.92 in 4.0 mi South 10.4 mph - N/A   Overcast
5:15 PM 66.2 °F 66.2 °F 100% 29.92 in 2.5 mi SSW 8.1 mph - N/A   Heavy Drizzle
5:35 PM 66.4 °F 65.8 °F 98% 29.92 in 5.0 mi SSW 8.1 mph - N/A   Drizzle
5:55 PM 66.4 °F 66.4 °F 100% 29.91 in 3.0 mi SSW 9.2 mph - N/A   Overcast
6:15 PM 66.6 °F 66.6 °F 100% 29.92 in 5.0 mi SSW 8.1 mph - N/A   Overcast
6:35 PM 66.4 °F 66.4 °F 100% 29.92 in 7.0 mi SSW 10.4 mph - N/A   Overcast
6:55 PM 66.7 °F 66.6 °F 99% 29.93 in 7.0 mi SW 8.1 mph - N/A   Overcast
7:15 PM 66.7 °F 66.7 °F 100% 29.93 in 7.0 mi SSW 9.2 mph - N/A   Light Drizzle
7:35 PM 66.7 °F 66.7 °F 100% 29.93 in 7.0 mi SSW 9.2 mph - N/A   Overcast
7:55 PM 66.9 °F 66.9 °F 100% 29.93 in 7.0 mi SW 10.4 mph - N/A   Overcast
8:15 PM 67.1 °F 66.9 °F 99% 29.94 in 7.0 mi SSW 9.2 mph - N/A   Overcast
8:35 PM 67.1 °F 66.7 °F 99% 29.94 in 10.0 mi SSW 8.1 mph - N/A   Overcast
8:55 PM 67.1 °F 67.1 °F 100% 29.94 in 10.0 mi SW 6.9 mph - N/A   Overcast
9:15 PM 67.1 °F 67.1 °F 100% 29.95 in 10.0 mi SSW 6.9 mph - N/A   Overcast
9:35 PM 66.7 °F 66.7 °F 100% 29.95 in 7.0 mi SSW 6.9 mph - N/A Rain Rain
9:55 PM 66.7 °F 66.7 °F 100% 29.95 in 7.0 mi WSW 5.8 mph - N/A Rain Light Rain
10:15 PM 65.8 °F 63.7 °F 93% 29.96 in 7.0 mi West 5.8 mph 18.4 mph N/A Rain Rain
10:35 PM 64.9 °F 62.1 °F 90% 29.96 in 10.0 mi West 10.4 mph - N/A   Overcast
10:55 PM 63.7 °F 59.5 °F 86% 29.96 in 10.0 mi WNW 12.7 mph - N/A   Overcast
11:15 PM 62.8 °F 59.0 °F 87% 29.96 in 10.0 mi WNW 8.1 mph - N/A   Overcast
11:35 PM 61.9 °F 53.8 °F 75% 29.95 in 10.0 mi WNW 10.4 mph 20.7 mph N/A   Overcast
11:55 PM 60.8 °F 52.7 °F 75% 29.96 in 10.0 mi WNW 11.5 mph 17.3 mph N/A   Overcast